Thunderstorms From: 25-05-2018 15:00 Until: 26-05-2018 15:00 warning for: Thunderstorms Level: Yellow info button

Although rather usual in this region, locally or potentially dangerous phenomena are expected. (such as local winds, summer thunderstorms, rising streams or high waves) Be aware and pay attention to the latest weather updates, especially if you carry out activities exposed to weather or close to a stream or shoreline. 


Meteo18 Weather Cam more information Meteo18 Weather Cam


warning for Thunderstorms more information blitzortung!


Rain radar more information rain snow radar


Visit our other weather sites:

Template documentation
and downloads

And another site



Weather Underground History page Text

Daily Summary for May 4, 2016 Units:  Metric    English   Both
« Previous Day
Next Day »
Daily Weekly Monthly Yearly Custom
  High: Low: Average:
Temperature: -17.8 °C -16.8 °C -11.7 °C
Dew Point: -17.8 °C -17.3 °C -15.7 °C
Humidity: Humidity % 34 % 65 %
Wind Speed: 0 km/h 0 km/h 2.1 km/h
Wind Gust: 0 km/h - -
Wind:- - ENE
Pressure: 0 hPa 34591.4 hPa -
Precipitation: 0 mm    
Historical Graphs
 
 
Tabular Data for May 4, 2016
Time Temperature Dew Point Pressure Wind Wind Speed Wind Gust Humidity Rainfall Rate (Hourly)
-17.8 °C -17.8 °C 0 hPa Calm     Humidity % 0 mm
00:02 -15.3 °C -16.1 °C 34784.4 hPa Calm     90 % 0 mm
00:17 -15.4 °C -16.3 °C 34774.2 hPa Calm     90 % 0 mm
00:22 -15.6 °C -16.4 °C 34774.2 hPa Calm     90 % 0 mm
00:27 -15.6 °C -16.3 °C 34774.2 hPa Calm     91 % 0 mm
00:32 -15.7 °C -16.4 °C 34784.4 hPa Calm     91 % 0 mm
00:37 -15.7 °C -16.3 °C 34774.2 hPa Calm     92 % 0 mm
00:42 -15.6 °C -16.3 °C 34784.4 hPa Calm     92 % 0 mm
00:47 -15.7 °C -16.3 °C 34784.4 hPa Calm     92 % 0 mm
00:52 -15.7 °C -16.3 °C 34784.4 hPa Calm     92 % 0 mm
00:57 -15.7 °C -16.4 °C 34784.4 hPa Calm     92 % 0 mm
01:02 -15.7 °C -16.4 °C 34784.4 hPa Calm     92 % 0 mm
01:07 -15.7 °C -16.3 °C 34784.4 hPa Calm     92 % 0 mm
01:12 -15.7 °C -16.4 °C 34784.4 hPa Calm     92 % 0 mm
01:17 -15.8 °C -16.4 °C 34784.4 hPa Calm     92 % 0 mm
01:22 -15.8 °C -16.4 °C 34784.4 hPa Calm     92 % 0 mm
01:27 -15.7 °C -16.4 °C 34774.2 hPa Calm     92 % 0 mm
01:32 -15.7 °C -16.4 °C 34774.2 hPa Calm     92 % 0 mm
01:37 -15.7 °C -16.4 °C 34774.2 hPa Calm     92 % 0 mm
01:42 -15.7 °C -16.3 °C 34774.2 hPa Calm     92 % 0 mm
01:47 -15.7 °C -16.4 °C 34774.2 hPa Calm     91 % 0 mm
01:52 -15.7 °C -16.4 °C 34774.2 hPa Calm     91 % 0 mm
01:57 -15.7 °C -16.4 °C 34774.2 hPa Calm     91 % 0 mm
02:02 -15.7 °C -16.4 °C 34774.2 hPa Calm     91 % 0 mm
02:07 -15.8 °C -16.4 °C 34760.7 hPa Calm     92 % 0 mm
02:12 -15.8 °C -16.4 °C 34760.7 hPa Calm     92 % 0 mm
02:17 -15.8 °C -16.6 °C 34760.7 hPa Calm     91 % 0 mm
02:22 -15.9 °C -16.6 °C 34760.7 hPa Calm     91 % 0 mm
02:27 -15.9 °C -16.6 °C 34760.7 hPa Calm     92 % 0 mm
02:32 -15.9 °C -16.6 °C 34750.5 hPa Calm     91 % 0 mm
02:37 -15.9 °C -16.7 °C 34750.5 hPa Calm     91 % 0 mm
02:42 -15.9 °C -16.7 °C 34750.5 hPa Calm     91 % 0 mm
02:47 -16 °C -16.7 °C 34750.5 hPa Calm     92 % 0 mm
02:52 -16 °C -16.7 °C 34750.5 hPa Calm     92 % 0 mm
02:57 -16.1 °C -16.7 °C 34750.5 hPa Calm     92 % 0 mm
03:02 -16.1 °C -16.7 °C 34750.5 hPa Calm     92 % 0 mm
03:07 -16.1 °C -16.8 °C 34750.5 hPa Calm     92 % 0 mm
03:12 -16.2 °C -16.8 °C 34750.5 hPa Calm     92 % 0 mm
03:17 -16.2 °C -16.8 °C 34750.5 hPa Calm     92 % 0 mm
03:22 -16.2 °C -16.8 °C 34750.5 hPa Calm     92 % 0 mm
03:27 -16.2 °C -16.7 °C 34750.5 hPa Calm     93 % 0 mm
03:32 -16.2 °C -16.7 °C 34750.5 hPa Calm     93 % 0 mm
03:37 -16.2 °C -16.7 °C 34750.5 hPa Calm     93 % 0 mm
03:42 -16.2 °C -16.7 °C 34750.5 hPa Calm     93 % 0 mm
03:47 -16.2 °C -16.7 °C 34750.5 hPa Calm     93 % 0 mm
03:52 -16.2 °C -16.8 °C 34750.5 hPa Calm     93 % 0 mm
03:57 -16.2 °C -16.8 °C 34750.5 hPa Calm     93 % 0 mm
04:02 -16.2 °C -16.7 °C 34750.5 hPa Calm     93 % 0 mm
04:07 -16.2 °C -16.7 °C 34750.5 hPa Calm     93 % 0 mm
04:12 -16.2 °C -16.7 °C 34750.5 hPa Calm     93 % 0 mm
04:17 -16.2 °C -16.8 °C 34750.5 hPa Calm     93 % 0 mm
04:22 -16.2 °C -16.8 °C 34750.5 hPa Calm     93 % 0 mm
04:37 -16.3 °C -16.8 °C 34750.5 hPa Calm     93 % 0 mm
04:42 -16.3 °C -16.8 °C 34750.5 hPa Calm     93 % 0 mm
04:47 -16.3 °C -17 °C 34750.5 hPa Calm     92 % 0 mm
04:52 -16.3 °C -16.9 °C 34750.5 hPa Calm     93 % 0 mm
04:57 -16.4 °C -16.9 °C 34750.5 hPa Calm     93 % 0 mm
05:02 -16.4 °C -17 °C 34750.5 hPa Calm     93 % 0 mm
05:07 -16.4 °C -17 °C 34750.5 hPa Calm     93 % 0 mm
05:12 -16.4 °C -17 °C 34750.5 hPa Calm     93 % 0 mm
05:17 -16.4 °C -17 °C 34750.5 hPa Calm     93 % 0 mm
05:27 -16.5 °C -17.1 °C 34750.5 hPa Calm     93 % 0 mm
05:32 -16.6 °C -17.1 °C 34750.5 hPa Calm     93 % 0 mm
05:37 -16.6 °C -17.1 °C 34750.5 hPa Calm     93 % 0 mm
05:42 -16.6 °C -17.1 °C 34750.5 hPa Calm     93 % 0 mm
05:47 -16.6 °C -17.1 °C 34750.5 hPa Calm     94 % 0 mm
05:52 -16.6 °C -17.1 °C 34750.5 hPa Calm     94 % 0 mm
05:57 -16.6 °C -17.1 °C 34750.5 hPa Calm     94 % 0 mm
06:02 -16.6 °C -17.1 °C 34750.5 hPa Calm     94 % 0 mm
06:12 -16.7 °C -17.3 °C 34750.5 hPa Calm     93 % 0 mm
06:17 -16.8 °C -17.3 °C 34750.5 hPa Calm     94 % 0 mm
06:22 -16.8 °C -17.3 °C 34750.5 hPa Calm     94 % 0 mm
06:27 -16.8 °C -17.3 °C 34750.5 hPa Calm     94 % 0 mm
06:32 -16.8 °C -17.3 °C 34750.5 hPa Calm     94 % 0 mm
06:37 -16.8 °C -17.3 °C 34750.5 hPa Calm     94 % 0 mm
06:42 -16.7 °C -17.1 °C 34750.5 hPa Calm     95 % 0 mm
06:47 -16.7 °C -17.2 °C 34750.5 hPa Calm     94 % 0 mm
06:52 -16.7 °C -17.2 °C 34750.5 hPa Calm     94 % 0 mm
06:57 -16.7 °C -17.2 °C 34760.7 hPa Calm     94 % 0 mm
07:02 -16.7 °C -17.1 °C 34760.7 hPa Calm     95 % 0 mm
07:17 -16.4 °C -16.8 °C 34760.7 hPa Calm     95 % 0 mm
07:22 -16.3 °C -16.7 °C 34760.7 hPa Calm   2.6 km/h 95 % 0 mm
07:32 -16.1 °C -16.6 °C 34760.7 hPa Calm   5.1 km/h 94 % 0 mm
07:42 -15.8 °C -16.2 °C 34760.7 hPa Calm   2.6 km/h 95 % 0 mm
07:47 -15.7 °C -16.1 °C 34760.7 hPa Calm   2.6 km/h 95 % 0 mm
07:52 -15.5 °C -15.9 °C 34760.7 hPa Calm   2.6 km/h 95 % 0 mm
07:57 -15.4 °C -15.9 °C 34760.7 hPa Calm   2.6 km/h 94 % 0 mm
08:02 -15.2 °C -15.7 °C 34760.7 hPa Calm     94 % 0 mm
08:12 -14.6 °C -15.6 °C 34760.7 hPa Calm   7.7 km/h 89 % 0 mm
08:17 -14.3 °C -15.4 °C 34760.7 hPa North 5.1 km/h 7.7 km/h 87 % 0 mm
08:22 -14.2 °C -15.4 °C 34760.7 hPa Calm   7.7 km/h 85 % 0 mm
08:27 -14 °C -15.2 °C 34760.7 hPa Calm   12.9 km/h 86 % 0 mm
08:32 -13.9 °C -15.2 °C 34760.7 hPa NE 2.6 km/h 12.9 km/h 86 % 0 mm
08:37 -13.8 °C -15.1 °C 34760.7 hPa NNE 2.6 km/h 12.9 km/h 85 % 0 mm
08:42 -13.6 °C -15.2 °C 34760.7 hPa Calm   10.3 km/h 82 % 0 mm
08:47 -13.4 °C -15.2 °C 34760.7 hPa NE 7.7 km/h 12.9 km/h 81 % 0 mm
08:52 -13.3 °C -15.2 °C 34760.7 hPa NNE 5.1 km/h 12.9 km/h 79 % 0 mm
09:02 -13.2 °C -15.3 °C 34760.7 hPa Calm   18.2 km/h 77 % 0 mm
09:07 -13.1 °C -15.2 °C 34760.7 hPa North 7.7 km/h 18.2 km/h 77 % 0 mm
09:12 -12.9 °C -14.9 °C 34760.7 hPa NE 7.7 km/h 15.6 km/h 78 % 0 mm
09:17 -12.8 °C -15.2 °C 34760.7 hPa NNE 5.1 km/h 18.2 km/h 75 % 0 mm
09:22 -12.7 °C -15.1 °C 34760.7 hPa NE 7.7 km/h 18.2 km/h 74 % 0 mm
09:27 -12.5 °C -14.9 °C 34760.7 hPa North 2.6 km/h 18.2 km/h 74 % 0 mm
09:32 -12.3 °C -14.8 °C 34760.7 hPa NNE 2.6 km/h 15.6 km/h 74 % 0 mm
09:37 -12.1 °C -14.8 °C 34760.7 hPa NE 7.7 km/h 12.9 km/h 72 % 0 mm
09:47 -11.4 °C -14.4 °C 34760.7 hPa NNE 5.1 km/h 12.9 km/h 70 % 0 mm
09:52 -11.2 °C -14.3 °C 34760.7 hPa Calm   10.3 km/h 68 % 0 mm
10:02 -10.8 °C -14.1 °C 34760.7 hPa Calm   7.7 km/h 67 % 0 mm
10:07 -10.3 °C -14.1 °C 34760.7 hPa Calm   7.7 km/h 64 % 0 mm
10:12 -10.1 °C -14.2 °C 34760.7 hPa NNE 2.6 km/h 7.7 km/h 61 % 0 mm
10:17 -10.1 °C -13.7 °C 34750.5 hPa North 2.6 km/h 12.9 km/h 65 % 0 mm
10:22 -9.9 °C -13.8 °C 34750.5 hPa Calm   12.9 km/h 63 % 0 mm
10:27 -9.7 °C -14.1 °C 34760.7 hPa Calm   12.9 km/h 59 % 0 mm
10:32 -9.4 °C -13.7 °C 34750.5 hPa Calm   5.1 km/h 60 % 0 mm
10:37 -9.1 °C -13.9 °C 34750.5 hPa Calm   5.1 km/h 56 % 0 mm
10:42 -9.1 °C -13.8 °C 34750.5 hPa Calm   10.3 km/h 57 % 0 mm
10:47 -9 °C -13.9 °C 34750.5 hPa Calm   10.3 km/h 56 % 0 mm
10:52 -9 °C -13.6 °C 34750.5 hPa Calm   10.3 km/h 58 % 0 mm
10:57 -8.8 °C -13.9 °C 34750.5 hPa Calm   7.7 km/h 54 % 0 mm
11:02 -8.5 °C -14.8 °C 34750.5 hPa Calm   7.7 km/h 47 % 0 mm
11:07 -8.6 °C -14.2 °C 34750.5 hPa NNE 2.6 km/h 7.7 km/h 51 % 0 mm
11:12 -8.4 °C -14.4 °C 34750.5 hPa SW 5.1 km/h 7.7 km/h 49 % 0 mm
11:17 -8.4 °C -13.9 °C 34750.5 hPa West 2.6 km/h 7.7 km/h 52 % 0 mm
11:22 -8.4 °C -14.7 °C 34750.5 hPa NNW 2.6 km/h 7.7 km/h 47 % 0 mm
11:27 -8.4 °C -14.6 °C 34750.5 hPa Calm   7.7 km/h 48 % 0 mm
11:32 -8.2 °C -13.7 °C 34750.5 hPa ENE 2.6 km/h 12.9 km/h 52 % 0 mm
11:37 -8.2 °C -14.1 °C 34750.5 hPa Calm   12.9 km/h 50 % 0 mm
11:42 -7.9 °C -14.2 °C 34750.5 hPa NNE 5.1 km/h 12.9 km/h 48 % 0 mm
11:52 -8 °C -14.7 °C 34750.5 hPa Calm   7.7 km/h 45 % 0 mm
11:57 -7.9 °C -14.7 °C 34750.5 hPa Calm   10.3 km/h 45 % 0 mm
12:02 -7.8 °C -15.1 °C 34750.5 hPa Calm   10.3 km/h 42 % 0 mm
12:07 -7.8 °C -15.5 °C 34750.5 hPa Calm   10.3 km/h 40 % 0 mm
12:12 -7.9 °C -15.4 °C 34750.5 hPa ESE 5.1 km/h 10.3 km/h 41 % 0 mm
12:17 -8.1 °C -14.8 °C 34750.5 hPa ENE 5.1 km/h 18.2 km/h 45 % 0 mm
12:22 -7.9 °C -15.6 °C 34750.5 hPa Calm   18.2 km/h 40 % 0 mm
12:27 -8 °C -14.9 °C 34750.5 hPa NE 18.2 km/h 18.2 km/h 44 % 0 mm
12:32 -8.2 °C -15.1 °C 34740.4 hPa Calm   20.8 km/h 44 % 0 mm
12:37 -8.4 °C -15.4 °C 34740.4 hPa ENE 7.7 km/h 25.9 km/h 43 % 0 mm
12:42 -8.5 °C -15.3 °C 34740.4 hPa NE 7.7 km/h 25.9 km/h 44 % 0 mm
12:47 -8.4 °C -15.6 °C 34740.4 hPa SSE 2.6 km/h 25.9 km/h 42 % 0 mm
12:52 -8.2 °C -15.8 °C 34740.4 hPa North 2.6 km/h 25.9 km/h 40 % 0 mm
12:57 -8 °C -16.3 °C 34740.4 hPa SSE 2.6 km/h 20.8 km/h 37 % 0 mm
13:02 -7.9 °C -15 °C 34740.4 hPa NNE 15.6 km/h 20.8 km/h 43 % 0 mm
13:07 -8.1 °C -15 °C 34740.4 hPa North 7.7 km/h 15.6 km/h 44 % 0 mm
13:12 -8.2 °C -15.2 °C 34740.4 hPa NE 10.3 km/h 20.8 km/h 43 % 0 mm
13:17 -8.2 °C -15.7 °C 34726.8 hPa NNE 10.3 km/h 20.8 km/h 41 % 0 mm
13:22 -8.1 °C -15.7 °C 34726.8 hPa SSE 2.6 km/h 18.2 km/h 40 % 0 mm
13:27 -8 °C -15.7 °C 34726.8 hPa Calm   18.2 km/h 40 % 0 mm
13:32 -8.2 °C -15.1 °C 34726.8 hPa NE 10.3 km/h 18.2 km/h 44 % 0 mm
13:37 -8.1 °C -14.8 °C 34726.8 hPa Calm   25.9 km/h 45 % 0 mm
13:42 -7.7 °C -14.6 °C 34726.8 hPa Calm   25.9 km/h 44 % 0 mm
13:47 -7.7 °C -15.6 °C 34726.8 hPa NE 2.6 km/h 25.9 km/h 39 % 0 mm
13:52 -7.7 °C -15.2 °C 34716.7 hPa ENE 7.7 km/h 18.2 km/h 41 % 0 mm
13:57 -7.9 °C -15.6 °C 34716.7 hPa ENE 2.6 km/h 20.8 km/h 40 % 0 mm
14:02 -7.9 °C -15.4 °C 34716.7 hPa NNE 7.7 km/h 20.8 km/h 41 % 0 mm
14:07 -7.8 °C -14.2 °C 34716.7 hPa Calm   28.5 km/h 47 % 0 mm
14:12 -7.6 °C -15.2 °C 34716.7 hPa East 2.6 km/h 28.5 km/h 40 % 0 mm
14:17 -7.8 °C -15.3 °C 34716.7 hPa North 5.1 km/h 20.8 km/h 41 % 0 mm
14:22 -7.6 °C -14.7 °C 34716.7 hPa NNE 10.3 km/h 20.8 km/h 43 % 0 mm
14:27 -7.4 °C -14.6 °C 34716.7 hPa ENE 2.6 km/h 20.8 km/h 43 % 0 mm
14:32 -7.4 °C -14.5 °C 34703.1 hPa Calm   18.2 km/h 43 % 0 mm
14:37 -7.2 °C -14.8 °C 34703.1 hPa Calm   18.2 km/h 41 % 0 mm
14:42 -7.4 °C -14.9 °C 34703.1 hPa NE 2.6 km/h 12.9 km/h 41 % 0 mm
14:47 -7.4 °C -14.6 °C 34703.1 hPa Calm   15.6 km/h 43 % 0 mm
14:52 -7.4 °C -15.8 °C 34703.1 hPa NNE 7.7 km/h 15.6 km/h 37 % 0 mm
14:57 -7.6 °C -15.2 °C 34703.1 hPa NE 10.3 km/h 23.3 km/h 40 % 0 mm
15:02 -7.7 °C -15.6 °C 34703.1 hPa NE 5.1 km/h 23.3 km/h 39 % 0 mm
15:07 -7.7 °C -14.8 °C 34703.1 hPa NNW 7.7 km/h 23.3 km/h 43 % 0 mm
15:12 -7.6 °C -15.2 °C 34693 hPa Calm   20.8 km/h 40 % 0 mm
15:17 -7.4 °C -15.2 °C 34693 hPa NE 5.1 km/h 15.6 km/h 40 % 0 mm
15:22 -7.4 °C -15.3 °C 34693 hPa Calm   20.8 km/h 39 % 0 mm
15:27 -7.3 °C -15.4 °C 34693 hPa NE 5.1 km/h 20.8 km/h 38 % 0 mm
15:32 -7.4 °C -15.1 °C 34693 hPa NE 2.6 km/h 18.2 km/h 40 % 0 mm
15:37 -7.6 °C -15.5 °C 34682.8 hPa ENE 5.1 km/h 20.8 km/h 39 % 0 mm
15:47 -7.6 °C -14.8 °C 34682.8 hPa SSE 2.6 km/h 20.8 km/h 42 % 0 mm
15:52 -7.4 °C -14.8 °C 34682.8 hPa ENE 7.7 km/h 20.8 km/h 42 % 0 mm
16:02 -7.2 °C -14.9 °C 34682.8 hPa Calm   18.2 km/h 40 % 0 mm
16:07 -7.1 °C -14.6 °C 34682.8 hPa ENE 2.6 km/h 18.2 km/h 41 % 0 mm
16:12 -7.1 °C -15 °C 34669.3 hPa NE 2.6 km/h 18.2 km/h 39 % 0 mm
16:17 -7.1 °C -14.8 °C 34669.3 hPa Calm   18.2 km/h 40 % 0 mm
16:22 -7.1 °C -16.1 °C 34669.3 hPa Calm   18.2 km/h 34 % 0 mm
16:27 -6.9 °C -14.7 °C 34669.3 hPa Calm   12.9 km/h 40 % 0 mm
16:32 -7 °C -15.6 °C 34659.1 hPa NE 2.6 km/h 12.9 km/h 36 % 0 mm
16:37 -7.2 °C -14.9 °C 34659.1 hPa Calm   25.9 km/h 40 % 0 mm
16:42 -7.3 °C -15 °C 34659.1 hPa NE 2.6 km/h 25.9 km/h 40 % 0 mm
16:47 -7.4 °C -15.3 °C 34659.1 hPa NE 5.1 km/h 18.2 km/h 39 % 0 mm
16:52 -7.3 °C -14.8 °C 34659.1 hPa Calm   18.2 km/h 41 % 0 mm
17:02 -7.3 °C -16.1 °C 34645.6 hPa North 10.3 km/h 15.6 km/h 35 % 0 mm
17:07 -7.3 °C -15.2 °C 34645.6 hPa Calm   15.6 km/h 39 % 0 mm
17:12 -7.2 °C -15.8 °C 34645.6 hPa NNE 10.3 km/h 18.2 km/h 36 % 0 mm
17:17 -7.4 °C -16.2 °C 34645.6 hPa NE 2.6 km/h 18.2 km/h 35 % 0 mm
17:22 -7.3 °C -14.8 °C 34635.4 hPa NE 7.7 km/h 18.2 km/h 41 % 0 mm
17:27 -7.3 °C -15.7 °C 34635.4 hPa Calm   15.6 km/h 37 % 0 mm
17:32 -7.2 °C -14.8 °C 34635.4 hPa NE 10.3 km/h 15.6 km/h 41 % 0 mm
17:37 -7.3 °C -15.7 °C 34635.4 hPa NNE 7.7 km/h 15.6 km/h 37 % 0 mm
17:42 -7.3 °C -15.3 °C 34635.4 hPa Calm   18.2 km/h 39 % 0 mm
17:52 -7.4 °C -15.6 °C 34635.4 hPa NE 10.3 km/h 23.3 km/h 38 % 0 mm
17:57 -7.5 °C -15.2 °C 34625.2 hPa Calm   23.3 km/h 40 % 0 mm
18:02 -7.5 °C -15.8 °C 34625.2 hPa SE 2.6 km/h 23.3 km/h 37 % 0 mm
18:07 -7.6 °C -15.2 °C 34625.2 hPa ENE 2.6 km/h 20.8 km/h 40 % 0 mm
18:12 -7.6 °C -15.7 °C 34625.2 hPa NNE 10.3 km/h 23.3 km/h 38 % 0 mm
18:17 -7.6 °C -15.5 °C 34625.2 hPa NNE 2.6 km/h 23.3 km/h 39 % 0 mm
18:22 -7.6 °C -15.5 °C 34625.2 hPa NE 5.1 km/h 18.2 km/h 39 % 0 mm
18:27 -7.7 °C -15.8 °C 34625.2 hPa NE 7.7 km/h 15.6 km/h 38 % 0 mm
18:32 -7.7 °C -15.8 °C 34625.2 hPa NNE 7.7 km/h 18.2 km/h 38 % 0 mm
18:42 -7.9 °C -16 °C 34611.7 hPa North 5.1 km/h 18.2 km/h 38 % 0 mm
18:47 -8.1 °C -15.7 °C 34611.7 hPa NNE 5.1 km/h 15.6 km/h 40 % 0 mm
18:52 -8.2 °C -16 °C 34611.7 hPa NE 10.3 km/h 15.6 km/h 39 % 0 mm
18:57 -8.2 °C -15.8 °C 34611.7 hPa NNE 10.3 km/h 18.2 km/h 40 % 0 mm
19:02 -8.3 °C -15.9 °C 34611.7 hPa ENE 10.3 km/h 23.3 km/h 40 % 0 mm
19:07 -8.4 °C -16 °C 34611.7 hPa NNE 7.7 km/h 23.3 km/h 40 % 0 mm
19:12 -8.4 °C -16.2 °C 34611.7 hPa NE 7.7 km/h 15.6 km/h 39 % 0 mm
19:27 -8.7 °C -15.8 °C 34601.5 hPa NNE 2.6 km/h 15.6 km/h 42 % 0 mm
19:32 -8.7 °C -16.1 °C 34611.7 hPa NNE 5.1 km/h 12.9 km/h 41 % 0 mm
19:37 -8.7 °C -15.9 °C 34601.5 hPa East 7.7 km/h 15.6 km/h 42 % 0 mm
19:42 -8.8 °C -15.9 °C 34601.5 hPa NNE 2.6 km/h 15.6 km/h 42 % 0 mm
19:47 -8.8 °C -15.3 °C 34601.5 hPa NE 2.6 km/h 18.2 km/h 46 % 0 mm
19:52 -9 °C -15.4 °C 34601.5 hPa Calm   18.2 km/h 46 % 0 mm
19:57 -9.1 °C -15.2 °C 34601.5 hPa Calm   10.3 km/h 48 % 0 mm
20:02 -9.2 °C -15.3 °C 34601.5 hPa NNE 10.3 km/h 15.6 km/h 48 % 0 mm
20:07 -9.2 °C -15.3 °C 34601.5 hPa NNE 5.1 km/h 18.2 km/h 48 % 0 mm
20:12 -9.3 °C -15.2 °C 34601.5 hPa NE 5.1 km/h 18.2 km/h 49 % 0 mm
20:17 -9.4 °C -15.2 °C 34601.5 hPa NE 5.1 km/h 18.2 km/h 50 % 0 mm
20:22 -9.6 °C -14.9 °C 34601.5 hPa Calm   18.2 km/h 53 % 0 mm
20:27 -9.9 °C -14.8 °C 34601.5 hPa NNE 12.9 km/h 12.9 km/h 55 % 0 mm
20:32 -9.9 °C -15.2 °C 34601.5 hPa NNE 2.6 km/h 15.6 km/h 53 % 0 mm
20:42 -10.1 °C -15.2 °C 34601.5 hPa NE 2.6 km/h 15.6 km/h 54 % 0 mm
20:47 -10.2 °C -15.1 °C 34591.4 hPa Calm   10.3 km/h 55 % 0 mm
20:52 -10.3 °C -15.1 °C 34591.4 hPa NE 2.6 km/h 10.3 km/h 56 % 0 mm
20:57 -10.4 °C -15.3 °C 34591.4 hPa NNE 2.6 km/h 10.3 km/h 55 % 0 mm
21:02 -10.5 °C -15.3 °C 34591.4 hPa Calm   10.3 km/h 56 % 0 mm
21:07 -10.7 °C -15.3 °C 34591.4 hPa North 2.6 km/h 10.3 km/h 57 % 0 mm
21:12 -10.7 °C -15.3 °C 34591.4 hPa Calm   10.3 km/h 57 % 0 mm
21:17 -10.7 °C -15.3 °C 34591.4 hPa Calm   10.3 km/h 57 % 0 mm
21:22 -10.9 °C -15.3 °C 34591.4 hPa Calm   10.3 km/h 58 % 0 mm
21:32 -11.2 °C -15.3 °C 34601.5 hPa Calm   7.7 km/h 60 % 0 mm
21:37 -11.3 °C -15.3 °C 34601.5 hPa Calm   7.7 km/h 61 % 0 mm
21:42 -11.4 °C -15.5 °C 34601.5 hPa Calm   7.7 km/h 61 % 0 mm
21:47 -11.5 °C -15.4 °C 34601.5 hPa Calm   5.1 km/h 62 % 0 mm
21:52 -11.6 °C -15.4 °C 34601.5 hPa Calm   5.1 km/h 63 % 0 mm
21:57 -11.7 °C -15.2 °C 34601.5 hPa Calm   7.7 km/h 65 % 0 mm
22:02 -11.8 °C -15.2 °C 34601.5 hPa Calm   7.7 km/h 66 % 0 mm
22:07 -12 °C -15.3 °C 34601.5 hPa Calm   7.7 km/h 67 % 0 mm
22:12 -12.1 °C -15.2 °C 34601.5 hPa NE 2.6 km/h 5.1 km/h 68 % 0 mm
22:17 -12.1 °C -15.4 °C 34601.5 hPa Calm   10.3 km/h 67 % 0 mm
22:22 -12.1 °C -15.4 °C 34601.5 hPa Calm   10.3 km/h 67 % 0 mm
22:27 -12.1 °C -15.4 °C 34601.5 hPa Calm   10.3 km/h 66 % 0 mm
22:32 -12.1 °C -15.2 °C 34601.5 hPa Calm   10.3 km/h 68 % 0 mm
22:37 -12.2 °C -15.3 °C 34601.5 hPa Calm   10.3 km/h 68 % 0 mm
22:42 -12.2 °C -15.2 °C 34601.5 hPa Calm   10.3 km/h 69 % 0 mm
22:47 -12.3 °C -15.3 °C 34601.5 hPa Calm   5.1 km/h 69 % 0 mm
22:52 -12.2 °C -15.2 °C 34601.5 hPa North 2.6 km/h 7.7 km/h 69 % 0 mm
22:57 -12.3 °C -15.2 °C 34601.5 hPa Calm   7.7 km/h 70 % 0 mm
23:02 -12.4 °C -15.2 °C 34601.5 hPa Calm   7.7 km/h 71 % 0 mm
23:07 -12.5 °C -15.3 °C 34601.5 hPa Calm   5.1 km/h 71 % 0 mm
23:12 -12.6 °C -15.3 °C 34611.7 hPa NE 2.6 km/h 5.1 km/h 72 % 0 mm
23:17 -12.7 °C -15.2 °C 34601.5 hPa Calm   7.7 km/h 73 % 0 mm
23:22 -12.7 °C -15.3 °C 34601.5 hPa Calm   10.3 km/h 73 % 0 mm
23:27 -12.7 °C -15.2 °C 34601.5 hPa NNE 2.6 km/h 10.3 km/h 73 % 0 mm
23:32 -12.6 °C -15.3 °C 34601.5 hPa Calm   7.7 km/h 71 % 0 mm
23:37 -12.4 °C -15.4 °C 34601.5 hPa NE 5.1 km/h 10.3 km/h 69 % 0 mm
23:42 -12.3 °C -15.3 °C 34601.5 hPa Calm   10.3 km/h 69 % 0 mm
23:52 -12.3 °C -15.3 °C 34601.5 hPa Calm   7.7 km/h 69 % 0 mm
23:57 -12.3 °C -15.2 °C 34601.5 hPa NE 2.6 km/h 7.7 km/h 70 % 0 mm
Meteo18
Compliments of Weather Underground - 4 mb

Script developed by  Jim McMurry - jmcmurry@mwt.net Adapted for the template by  Wim van der Kuil - Leuven-Template.eu

You find our weather info also at:

European Weather Network

Weather Underground

Equipment we use:

Weather-station
Davis Vue

Weather-program
Meteobridge

Weather-server
Raspberry PI 2 B+

Provider
1 and 1

Davis Vue

Meteobridge

Raspberry PI 2 B+

1 and 1